Location: Ajisawe
(8.4333°N, 4.3833°E)
Time: 20:59:07
(UTC+00:00)

Cosmos 2237 Rocket - Visible Passes

Search period start: 29 September 2020 00:00
Search period end: 09 October 2020 00:00
Orbit: 836 x 848 km, 71.0° (Epoch: 28 September)

Date Brightness Start Highest point End Pass type
(mag) Time Alt. Az. Time Alt. Az. Time Alt. Az.
29 Sep 5.0 02:32:51 10° ESE 02:34:19 11° ESE 02:36:05 10° E visible
29 Sep 2.4 04:14:53 24° SW 04:17:59 47° WNW 04:23:24 10° N visible
30 Sep 2.3 04:02:49 50° W 04:03:08 51° WNW 04:08:34 10° N visible
01 Oct 2.9 03:50:13 37° NNW 03:50:13 37° NNW 03:53:45 10° N visible
02 Oct 3.9 03:37:16 20° N 03:37:16 20° N 03:38:56 10° N visible
03 Oct 4.6 03:24:03 10° N 03:24:03 10° N 03:24:06 10° N visible
